User: anonymous   Login
Location: *
(60.1759°S, 155.0663°W)
Time: 01:49:21
(UTC+00:00)
Language:

Cosmos 1627 Rocket - Orbit

View from above orbital plane
View from above orbital plane
View from above satellite
View from above satellite

Ground track
Ground track

The orbit data is extracted from the following two-line orbital elements,

1 15506U 85011B   19325.14237905  .00000081  00000-0  66719-4 0  9995
2 15506  82.9202   1.2358 0037857  87.6755 325.3926 13.76198629747335
Epoch (UTC): 21 November 2019 03:25:01
Eccentricity: 0.0037857
inclination: 82.9202°
perigee height: 949 km
apogee height: 1005 km
right ascension of ascending node: 1.2358°
argument of perigee: 87.6755°
revolutions per day: 13.76198629
mean anomaly at epoch: 325.3926°
orbit number at epoch: 74733

The dashed part of the orbit path shows where the satellite is in the earth's shadow,  

DLR